STARLINK-30053, 56700

Orbit data source: Space-Track

STARLINK-30053, 56700 is a payload satellite owned by SpaceX/Seattle (US) in LEO that was launched on Fri, 19 May 2023 UTC via an FALCON 9 launch vehicle from the Air Force Eastern Test Range (AFETR). Payload-class satellites include a variety of spacecraft equipped with specific instruments for various scientific and technological missions. These include communications satellites like Starlink; space stations such as the ISS; scientific satellites like the Hubble; Earth observation satellites from companies like Planet Labs, Umbra, and HawkEye 360; GPS; miniature CubeSats for education and research; and military/defense satellites.

Loading next visibility...
Identifier
56700, 2023-067N
Orbit
LEO
Country
Flag of USUS
Related business
Manufacturer
SpaceX/Seattle
Mission
Operational Commercial Communications
Bus & Motor
STARLINK V2M, Unknown motor
Mass
730 kg wet, ~700 kg dry
Launch date (UTC)
2023-05-19 (3 years ago)
Launch vehicle
FALCON 9
Launch site
Air Force Eastern Test Range (AFETR)
Object type
Payload
Rocket body
Debris
Shape & HBR
Box + 2 Pan, 17.7 m
Radar Cross Section
33.884 m², Large (>1 m²)

Expand to show TLE details & history
Last TLE update: 2 days ago

TLE from 2 days ago
0 STARLINK-30053
1 56700U 23067N   26171.37365564  .00000256  00000-0  18813-4 0  9990
2 56700  43.0040  51.2115 0001235 264.2216  95.8495 15.27579065171400
Epoch: 2026-06-20T08:58Z
TLE epoch observation values (Epoch: 2026-06-20T08:58:03.847Z)
Latitude
-0°
Longitude
8.10626°
Altitude
482.914 km
Speed
7.626 km/s
True Right ascension
03h 24m 50s
True Declination
0° 00' 00"
Sunlit
Object was in daylight at epoch
Visualization orbit readout
Latitude
Unknown
Longitude
Unknown
Altitude
Unknown
Speed
Unknown
Apparent Right ascension
Unknown
Apparent Declination
Unknown
Sunlit
N/A
Visualization observer readout
Local Sidereal Time
21:32:58
Azimuth
Unknown
Elevation
Unknown
Doppler factor
Unknown
Orbital elements
Apogee altitude
485.844 km
Perigee altitude
484.149 km
Semi-major axis
6,863.133 km
Eccentricity
0.00012
Inclination
43.004°
RAAN
51.2115°
Arg. of periapsis
264.2216°
True anomaly
95.86358°
Mean anomaly
95.8495°
Eccentric anomaly
95.85654°
Mean motion
3.81733 °/min
Orbital period
94.31 mins
BSTAR
0.000018813
Loading maneuver chart data...
Computing Atmospheric mass density...
Loading historical data...
Loading historical data...
Loading historical data...
Loading historical data...
Loading historical data...
Loading historical data...
Loading historical data...

Documentation

Showing up to 5 results
|